Погода в Тихом

Украина / Днепропетровская область     48°08′32″N   35°50′16″E
темп.,
°C
ветер,
м/с
пор.,
м/с
влажн.,
%
обл.,
%
осадки,
мм/ч
давл.,
гПа
погр.,
м
20 апреля, вт
вт2000:00+11св2271100 0.1 101257
03:00+10св2275100 0.1 101137
06:00+9св3578100 0.0 1008144
09:00+10вюв4679100 0.1 1007460
12:00+10ссз2288100 2.8 1005276
15:00+10ссз5793100 14.4 1003485
18:00+9сз71094100 5.1 1002553
21:00+9зсз61191100 6.9 1005551
21 апреля, ср
ср2100:00+8з5119181 0.1 1008306
03:00+6зюз4109086 0.1 1010229
06:00+5юз49905 0.0 1011195
09:00+10зюз57734 0.0 1013664
12:00+14зюз675298 0.1 10141830
15:00+13зюз5658100 0.3 10141121
18:00+12зюз4667100 0.7 1015710
21:00+9юз348675 2.5 101796
22 апреля, чт
чт2200:00+8юз379019 0.6 1018128
03:00+7юз36925 0.6 101899
06:00+6юз36945 0.0 1019105
09:00+12юз45735 0.0 1020498
12:00+15юз44535 0.7 10211605
15:00+17юз444370 0.8 10202215
18:00+14ююз345599 0.0 102091
21:00+13ююз356199 0.0 1021107
23 апреля, пт
пт2300:00+10ююз36706 0.0 102290
03:00+9юз368172 0.0 1022101
06:00+9ююз378033 0.0 1022179
09:00+13ююз57655 0.0 1022570
12:00+16ююз56485 0.0 10221808
15:00+17юз66426 0.0 10202154
18:00+17ююз574785 0.0 1019998
21:00+12ююз512666 0.0 1020357
24 апреля, сб
сб2400:00+9ю410795 0.0 1019240
03:00+8ю3783100 0.0 1018151
06:00+8ю3879100 0.0 1017224
09:00+11ююз4567100 0.0 1017426
12:00+14зюз3560100 0.0 10171371
15:00+11сз5571100 0.3 1017725
18:00+9ссз557391 0.0 1018582
21:00+8с237759 0.0 1018145